GFSMA_sfc_vis_129.txt.gz
Visibility
15.0 15.0 15.0 15.0 15.0 15.0 15.0 15.0 15.0 15.0 15.0 15.0 15.0 15.0 15.0 15.0 15.0 15.0 15.0 15.0 15.0 15.0 15.0 15.0 15.0 15.0 13.3 14.1 15.0 15.0 15.0 15.0 15.0 12.7 4.7 15.0 15.0 15.0 15.0 4.2 15.0 15.0 15.0
15.0 15.0 15.0 15.0 11.5 6.7 15.0 12.4 15.0 15.0 15.0 15.0 15.0 15.0 15.0 15.0 15.0 15.0 15.0 15.0 15.0 15.0 15.0 15.0 11.1 15.0 15.0 15.0 8.1 15.0 15.0 15.0 15.0 10.6 5.2 15.0 15.0 5.1 15.0 7.9 15.0 15.0 15.0
14.6 15.0 15.0 15.0 15.0 15.0 15.0 15.0 14.1 4.3 15.0 15.0 15.0 15.0 15.0 15.0 15.0 15.0 15.0 15.0 14.2 1.4 15.0 15.0 15.0 14.6 14.4 3.8 14.8 15.0 15.0 15.0 15.0 15.0 14.8 15.0 15.0 14.5 3.0 3.8 5.5 15.0 15.0
14.7 15.0 12.0 15.0 15.0 15.0 15.0 13.6 15.0 13.0 15.0 15.0 15.0 15.0 15.0 15.0 15.0 15.0 15.0 15.0 15.0 15.0 6.4 13.9 15.0 15.0 15.0 15.0 15.0 13.8 15.0 15.0 15.0 15.0 15.0 15.0 15.0 15.0 15.0 13.7 4.0 5.2 15.0
15.0 10.4 15.0 15.0 15.0 15.0 5.4 1.0 2.0 2.5 6.9 11.4 11.3 15.0 15.0 15.0 15.0 15.0 15.0 15.0 15.0 15.0 15.0 15.0 15.0 15.0 10.9 14.6 14.1 15.0 5.6 15.0 15.0 15.0 15.0 15.0 15.0 15.0 10.2 7.8 6.3 5.3 9.6
15.0 15.0 15.0 15.0 15.0 15.0 15.0 15.0 15.0 15.0 1.5 2.5 14.4 15.0 15.0 15.0 15.0 15.0 15.0 15.0 15.0 15.0 15.0 15.0 14.5 15.0 15.0 15.0 15.0 13.4 14.1 15.0 15.0 15.0 15.0 15.0 15.0 15.0 15.0 15.0 7.4 3.5 4.9
15.0 15.0 15.0 15.0 15.0 15.0 15.0 15.0 15.0 15.0 15.0 15.0 15.0 15.0 15.0 15.0 15.0 15.0 15.0 15.0 15.0 15.0 15.0 15.0 15.0 14.0 15.0 15.0 15.0 15.0 12.5 15.0 6.8 15.0 15.0 2.5 15.0 15.0 15.0 15.0 15.0 8.5 7.2
15.0 15.0 15.0 15.0 15.0 15.0 15.0 15.0 15.0 15.0 15.0 15.0 15.0 15.0 11.2 14.8 0.4 15.0 15.0 15.0 15.0 15.0 15.0 15.0 15.0 15.0 12.9 15.0 15.0 15.0 15.0 15.0 13.1 7.5 15.0 15.0 6.6 15.0 15.0 15.0 15.0 10.5 11.3
15.0 15.0 15.0 15.0 15.0 15.0 15.0 15.0 15.0 8.8 15.0 15.0 15.0 15.0 15.0 15.0 0.4 4.2 0.2 2.6 13.7 12.4 15.0 15.0 15.0 15.0 15.0 15.0 15.0 12.8 12.9 15.0 13.6 15.0 9.3 15.0 15.0 15.0 15.0 15.0 15.0 15.0 9.5
15.0 15.0 15.0 15.0 15.0 15.0 15.0 15.0 15.0 15.0 15.0 4.0 15.0 15.0 15.0 15.0 15.0 2.2 3.5 15.0 5.4 7.2 15.0 15.0 15.0 15.0 15.0 15.0 15.0 15.0 15.0 15.0 15.0 15.0 15.0 15.0 15.0 15.0 15.0 15.0 15.0 15.0 15.0
15.0 15.0 15.0 15.0 15.0 15.0 15.0 15.0 15.0 15.0 15.0 15.0 15.0 13.7 15.0 15.0 15.0 11.2 15.0 7.5 7.6 15.0 15.0 15.0 15.0 15.0 15.0 15.0 15.0 15.0 15.0 15.0 14.4 15.0 15.0 15.0 15.0 15.0 15.0 15.0 15.0 15.0 15.0
15.0 15.0 15.0 15.0 15.0 15.0 15.0 15.0 15.0 15.0 15.0 15.0 15.0 15.0 15.0 15.0 15.0 9.0 12.9 15.0 15.0 15.0 15.0 15.0 15.0 15.0 15.0 15.0 15.0 15.0 15.0 0.1 0.1 1.6 15.0 15.0 15.0 15.0 15.0 15.0 15.0 15.0 15.0
15.0 15.0 15.0 15.0 15.0 15.0 15.0 15.0 15.0 15.0 15.0 15.0 15.0 15.0 15.0 15.0 15.0 15.0 15.0 15.0 15.0 15.0 15.0 15.0 15.0 15.0 15.0 15.0 15.0 6.4 15.0 0.0 0.0 0.1 0.1 7.3 15.0 15.0 15.0 15.0 15.0 15.0 15.0
15.0 15.0 15.0 15.0 15.0 15.0 15.0 15.0 15.0 15.0 15.0 15.0 15.0 15.0 15.0 15.0 15.0 11.0 15.0 10.2 9.1 15.0 15.0 15.0 15.0 15.0 15.0 15.0 15.0 9.0 15.0 0.0 0.0 0.0 0.1 0.1 0.6 2.5 15.0 15.0 15.0 15.0 15.0
15.0 15.0 15.0 15.0 15.0 15.0 15.0 15.0 15.0 15.0 15.0 15.0 15.0 15.0 15.0 15.0 15.0 15.0 14.9 13.6 6.0 10.9 15.0 15.0 15.0 15.0 15.0 15.0 15.0 15.0 15.0 0.2 0.0 0.0 0.1 0.1 0.1 0.5 0.1 0.1 1.0 3.2 15.0
15.0 15.0 15.0 15.0 15.0 15.0 15.0 15.0 15.0 15.0 15.0 15.0 15.0 15.0 15.0 15.0 15.0 15.0 12.7 11.1 13.9 9.0 15.0 15.0 15.0 15.0 15.0 15.0 13.4 15.0 15.0 15.0 0.0 0.0 0.0 0.0 0.1 0.3 0.1 0.0 0.0 0.1 8.5
15.0 15.0 15.0 15.0 15.0 15.0 15.0 15.0 15.0 15.0 15.0 15.0 15.0 15.0 15.0 15.0 15.0 15.0 15.0 7.6 15.0 8.8 15.0 15.0 15.0 15.0 15.0 15.0 15.0 15.0 15.0 15.0 7.6 0.0 0.0 0.0 0.1 0.1 0.0 0.0 0.0 0.1 0.2
11.8 14.9 15.0 8.1 11.3 10.6 15.0 13.2 13.9 15.0 15.0 15.0 15.0 15.0 15.0 15.0 15.0 15.0 15.0 15.0 14.7 15.0 14.3 15.0 14.9 15.0 15.0 15.0 15.0 15.0 15.0 15.0 15.0 0.1 0.0 0.0 0.1 0.0 0.0 0.0 0.0 0.0 0.0
14.8 15.0 11.8 11.8 7.5 4.8 5.2 7.6 15.0 11.5 15.0 15.0 15.0 15.0 15.0 15.0 14.6 15.0 14.8 15.0 15.0 8.2 15.0 14.8 15.0 14.2 15.0 15.0 15.0 15.0 15.0 15.0 15.0 0.2 0.0 0.0 0.1 0.0 0.0 0.0 0.0 0.0 0.0
12.5 12.0 7.5 7.5 4.9 0.3 6.7 6.5 6.4 11.1 15.0 15.0 15.0 15.0 15.0 15.0 15.0 13.6 15.0 14.9 15.0 15.0 11.7 14.9 12.4 11.1 15.0 15.0 15.0 5.3 0.1 9.5 0.0 0.1 0.1 0.0 0.1 0.0 0.0 0.0 0.0 0.0 0.0
12.4 6.4 0.9 3.4 4.0 0.6 0.1 0.3 3.6 5.9 5.8 13.7 14.4 15.0 14.7 8.6 1.3 7.1 11.0 15.0 14.7 14.7 15.0 12.7 14.3 6.9 15.0 0.1 0.1 0.4 2.7 0.1 0.0 0.0 0.0 0.0 0.0 0.1 0.1 0.1 0.1 0.1 0.1
0.5 0.5 0.2 0.2 0.3 0.5 0.2 0.2 0.2 0.1 0.2 0.6 1.4 10.9 15.0 14.8 15.0 5.9 5.0 3.0 2.0 2.5 15.0 6.2 15.0 14.9 7.3 15.0 15.0 8.3 0.4 0.0 0.0 0.1 0.0 0.0 0.2 0.1 0.2 14.9 15.0 15.0 15.0
15.0 15.0 4.2 0.2 0.1 0.1 0.1 0.1 0.2 0.1 0.1 0.1 0.1 0.4 7.3 8.8 13.0 12.1 9.2 9.8 15.0 9.6 0.2 0.7 0.0 8.5 0.1 0.4 10.8 9.3 1.7 1.1 15.0 0.0 0.1 0.0 0.1 0.0 0.3 14.6 15.0 15.0 15.0
14.1 11.7 3.6 1.9 3.5 2.2 0.7 0.1 0.2 0.1 0.1 0.1 0.1 0.1 0.1 0.1 0.3 1.8 2.4 6.7 5.0 0.2 0.1 0.4 0.1 0.1 0.1 0.2 0.1 0.2 11.8 0.0 0.0 0.0 0.0 0.0 0.1 0.1 0.1 0.4 10.3 15.0 15.0
15.0 13.2 9.0 2.8 2.5 1.5 4.0 6.5 1.2 0.2 0.1 0.1 0.1 0.1 0.1 0.1 0.1 0.1 0.3 0.5 0.6 0.5 1.8 1.1 0.1 3.7 13.3 13.4 13.5 0.3 0.0 0.0 0.0 0.0 0.0 0.0 0.1 9.2 3.2 0.5 0.1 15.0 15.0
15.0 15.0 15.0 14.6 14.8 3.5 8.8 15.0 7.4 1.8 1.9 1.0 0.8 0.4 0.1 0.1 0.1 0.2 0.1 0.2 0.3 0.1 0.3 0.9 1.2 0.3 1.7 0.8 9.1 1.2 0.2 0.1 0.0 0.0 0.1 0.1 0.2 0.3 1.7 15.0 8.1 1.5 0.1

GFSMA_sfc_vis_132.txt.gz
Visibility
7.9 15.0 10.0 12.4 15.0 14.5 8.2 15.0 15.0 15.0 15.0 10.1 15.0 15.0 12.7 15.0 15.0 15.0 15.0 15.0 15.0 15.0 15.0 15.0 15.0 15.0 15.0 15.0 15.0 15.0 15.0 15.0 15.0 15.0 15.0 15.0 15.0 10.1 2.8 15.0 15.0 15.0 15.0
9.4 15.0 15.0 8.7 14.1 15.0 15.0 13.3 15.0 7.3 15.0 10.9 7.8 15.0 15.0 7.6 4.5 15.0 15.0 15.0 15.0 15.0 15.0 15.0 15.0 10.3 15.0 15.0 15.0 15.0 15.0 15.0 15.0 15.0 15.0 15.0 15.0 10.0 2.9 15.0 15.0 9.7 15.0
12.5 3.6 2.7 2.6 4.7 1.8 11.0 15.0 15.0 15.0 15.0 15.0 15.0 14.8 14.0 15.0 15.0 12.2 15.0 15.0 14.1 1.3 15.0 15.0 15.0 15.0 15.0 15.0 15.0 15.0 15.0 15.0 15.0 15.0 15.0 15.0 15.0 15.0 14.3 3.5 10.7 8.1 5.1
10.8 3.9 2.7 5.0 12.9 12.8 14.3 15.0 2.7 15.0 15.0 15.0 15.0 15.0 13.9 8.2 15.0 15.0 15.0 15.0 15.0 15.0 0.4 13.6 15.0 15.0 15.0 15.0 13.1 15.0 15.0 15.0 15.0 15.0 15.0 15.0 15.0 15.0 15.0 15.0 15.0 4.4 4.5
15.0 15.0 15.0 15.0 15.0 15.0 15.0 13.6 5.7 3.8 11.0 11.4 11.8 15.0 15.0 15.0 15.0 12.1 12.2 15.0 15.0 15.0 15.0 15.0 15.0 15.0 15.0 15.0 15.0 15.0 15.0 15.0 15.0 15.0 15.0 15.0 15.0 15.0 15.0 15.0 15.0 8.8 9.6
15.0 15.0 15.0 15.0 15.0 15.0 15.0 14.8 15.0 14.7 15.0 15.0 14.4 15.0 15.0 15.0 3.8 15.0 15.0 15.0 15.0 15.0 15.0 15.0 14.5 15.0 15.0 15.0 15.0 15.0 15.0 15.0 15.0 15.0 13.3 15.0 15.0 15.0 15.0 15.0 15.0 15.0 10.9
15.0 15.0 15.0 15.0 15.0 15.0 15.0 15.0 15.0 14.7 8.9 15.0 15.0 15.0 15.0 15.0 1.8 3.6 15.0 15.0 15.0 15.0 15.0 15.0 15.0 15.0 5.4 14.0 15.0 15.0 15.0 7.2 15.0 15.0 5.5 4.0 15.0 15.0 15.0 15.0 15.0 15.0 15.0
15.0 15.0 15.0 15.0 15.0 15.0 15.0 15.0 15.0 15.0 15.0 15.0 7.2 13.5 14.2 14.9 8.7 15.0 9.1 15.0 15.0 15.0 15.0 15.0 15.0 15.0 15.0 15.0 15.0 15.0 15.0 15.0 15.0 15.0 15.0 7.9 9.5 12.9 15.0 15.0 15.0 15.0 15.0
15.0 15.0 15.0 15.0 15.0 15.0 15.0 15.0 15.0 15.0 15.0 15.0 15.0 10.1 8.2 14.1 15.0 13.5 14.6 15.0 15.0 15.0 15.0 15.0 15.0 15.0 15.0 15.0 15.0 15.0 15.0 15.0 15.0 15.0 15.0 14.6 11.5 10.9 15.0 9.9 12.3 15.0 15.0
15.0 15.0 15.0 15.0 15.0 15.0 15.0 15.0 15.0 15.0 15.0 14.5 15.0 15.0 13.5 12.4 3.9 9.8 11.7 14.4 15.0 7.3 15.0 15.0 15.0 15.0 15.0 15.0 15.0 15.0 15.0 15.0 15.0 15.0 15.0 15.0 13.5 15.0 15.0 15.0 15.0 15.0 15.0
15.0 15.0 15.0 15.0 15.0 15.0 15.0 15.0 15.0 15.0 15.0 15.0 15.0 15.0 14.0 15.0 13.4 5.1 9.4 15.0 15.0 15.0 15.0 15.0 15.0 15.0 15.0 15.0 15.0 15.0 15.0 15.0 15.0 15.0 15.0 15.0 15.0 15.0 15.0 15.0 15.0 15.0 15.0
15.0 15.0 15.0 15.0 15.0 15.0 15.0 15.0 15.0 15.0 15.0 15.0 15.0 15.0 10.6 2.0 11.4 7.0 8.0 11.8 15.0 15.0 15.0 15.0 15.0 15.0 15.0 15.0 15.0 15.0 15.0 15.0 15.0 15.0 15.0 15.0 15.0 15.0 15.0 15.0 15.0 15.0 15.0
15.0 15.0 15.0 15.0 15.0 15.0 15.0 15.0 15.0 15.0 15.0 15.0 15.0 15.0 15.0 15.0 15.0 15.0 12.3 9.4 6.5 15.0 15.0 15.0 15.0 15.0 15.0 15.0 15.0 15.0 15.0 15.0 7.0 10.9 15.0 15.0 15.0 15.0 15.0 15.0 15.0 15.0 15.0
15.0 15.0 15.0 15.0 15.0 15.0 15.0 15.0 15.0 15.0 15.0 15.0 15.0 15.0 15.0 15.0 15.0 15.0 15.0 4.6 6.6 10.1 14.6 15.0 15.0 15.0 15.0 15.0 15.0 15.0 15.0 15.0 0.1 0.1 0.1 15.0 15.0 15.0 15.0 15.0 15.0 15.0 15.0
15.0 15.0 15.0 15.0 15.0 15.0 15.0 15.0 15.0 15.0 15.0 15.0 15.0 15.0 15.0 15.0 15.0 15.0 15.0 15.0 5.4 9.4 15.0 15.0 15.0 15.0 15.0 15.0 15.0 15.0 15.0 9.0 0.1 0.0 0.0 0.1 5.0 15.0 15.0 15.0 15.0 15.0 15.0
15.0 15.0 15.0 15.0 15.0 15.0 15.0 15.0 15.0 15.0 15.0 15.0 15.0 15.0 15.0 15.0 15.0 15.0 15.0 15.0 14.9 8.0 12.5 15.0 15.0 15.0 15.0 15.0 15.0 15.0 15.0 15.0 0.0 0.0 0.0 0.0 0.1 0.1 0.4 0.1 0.2 6.8 10.9
15.0 15.0 15.0 15.0 15.0 15.0 15.0 15.0 15.0 15.0 15.0 15.0 15.0 15.0 15.0 15.0 15.0 15.0 15.0 15.0 15.0 15.0 9.7 15.0 15.0 15.0 15.0 15.0 15.0 15.0 15.0 15.0 7.6 0.0 0.0 0.0 0.0 0.1 0.1 0.1 0.1 0.1 0.0
15.0 14.8 15.0 15.0 15.0 15.0 14.3 14.9 14.7 6.3 5.1 7.2 15.0 15.0 15.0 15.0 15.0 15.0 15.0 15.0 15.0 15.0 15.0 15.0 15.0 12.4 15.0 15.0 15.0 15.0 15.0 15.0 15.0 0.3 0.0 0.0 0.0 0.0 0.1 0.0 0.0 0.0 0.0
14.2 15.0 15.0 14.0 5.1 5.5 14.0 11.7 7.0 9.0 8.6 6.7 13.7 15.0 15.0 15.0 15.0 15.0 15.0 15.0 15.0 15.0 15.0 15.0 15.0 15.0 15.0 15.0 15.0 14.9 12.3 15.0 15.0 0.4 0.0 0.0 0.0 0.0 0.1 0.0 0.0 0.0 0.0
13.5 13.5 12.4 15.0 5.5 5.6 7.3 10.3 7.9 10.8 14.4 10.8 9.0 13.1 15.0 14.7 15.0 15.0 15.0 15.0 15.0 15.0 14.9 15.0 15.0 11.3 15.0 15.0 14.5 15.0 8.6 11.3 15.0 9.1 0.5 0.3 0.1 0.1 0.1 0.0 0.0 0.0 0.0
14.0 15.0 14.1 14.8 10.0 8.3 3.4 6.0 7.9 8.2 8.4 0.7 0.5 12.9 8.0 7.9 6.8 0.4 11.1 15.0 15.0 4.2 11.8 14.8 15.0 15.0 13.1 8.7 15.0 15.0 13.5 8.6 12.1 0.1 0.0 0.0 0.0 0.1 0.1 0.0 0.1 0.0 0.0
15.0 15.0 13.8 15.0 9.8 9.4 0.9 0.8 3.9 1.8 2.6 0.3 0.2 0.2 0.4 6.8 14.4 14.8 10.8 3.7 0.4 0.1 0.1 13.1 12.6 12.1 15.0 9.2 13.1 14.9 15.0 1.2 0.0 0.1 0.0 0.0 0.1 0.0 0.1 0.2 0.1 0.1 0.0
15.0 15.0 15.0 15.0 6.9 5.3 15.0 2.4 0.2 0.2 0.2 0.1 0.1 0.1 0.2 0.1 0.2 7.3 7.4 14.7 15.0 3.2 0.2 0.4 0.1 0.0 0.3 0.0 0.3 5.5 15.0 13.7 15.0 5.2 0.1 0.0 0.0 0.0 0.2 13.5 15.0 15.0 5.0
15.0 15.0 15.0 15.0 13.3 6.5 15.0 15.0 10.0 1.1 0.2 0.1 0.1 0.1 0.1 0.1 0.1 0.1 0.9 2.5 3.3 3.5 1.1 0.3 0.1 0.1 0.1 0.6 1.3 13.0 2.5 0.1 0.0 0.0 0.0 0.0 0.0 0.0 0.0 0.3 13.1 15.0 15.0
15.0 15.0 15.0 15.0 15.0 15.0 15.0 6.9 4.8 2.7 1.9 1.9 0.4 0.1 0.1 0.1 0.1 0.1 0.1 0.1 0.1 0.1 0.3 5.2 4.5 4.9 7.3 14.9 15.0 14.3 0.5 0.1 0.0 0.0 0.0 0.0 0.0 0.0 0.0 0.1 0.1 15.0 15.0
15.0 15.0 15.0 15.0 15.0 15.0 15.0 15.0 13.6 3.1 1.5 1.5 2.5 1.6 1.1 0.5 0.2 0.1 0.1 0.1 0.2 0.1 0.1 0.1 0.2 0.4 0.7 0.9 6.5 3.2 2.4 0.1 0.1 0.0 0.1 0.0 0.0 0.0 0.1 0.0 0.1 0.1 0.1

GFSMA_sfc_vis_138.txt.gz
Visibility
15.0 15.0 10.7 15.0 5.6 15.0 13.2 9.9 2.2 9.3 11.9 15.0 15.0 15.0 15.0 11.3 15.0 15.0 15.0 15.0 15.0 15.0 15.0 15.0 15.0 15.0 15.0 15.0 15.0 15.0 15.0 15.0 15.0 15.0 15.0 15.0 15.0 15.0 15.0 15.0 6.1 2.5 15.0
15.0 15.0 15.0 15.0 9.3 15.0 13.4 8.0 2.2 1.9 2.1 1.1 1.3 2.3 8.8 6.6 15.0 15.0 15.0 15.0 15.0 15.0 15.0 15.0 15.0 15.0 15.0 15.0 15.0 15.0 15.0 15.0 15.0 15.0 15.0 15.0 15.0 15.0 15.0 15.0 3.5 11.2 15.0
15.0 15.0 15.0 15.0 15.0 15.0 15.0 14.2 3.0 2.6 9.1 1.9 0.6 0.5 1.8 2.8 15.0 11.8 15.0 15.0 15.0 15.0 15.0 15.0 15.0 15.0 15.0 15.0 15.0 15.0 15.0 15.0 15.0 15.0 15.0 15.0 15.0 15.0 15.0 13.6 15.0 8.1 15.0
15.0 15.0 15.0 15.0 15.0 15.0 15.0 15.0 13.3 3.8 15.0 14.4 15.0 4.1 1.3 1.9 15.0 3.8 2.9 13.0 15.0 15.0 15.0 15.0 15.0 15.0 15.0 15.0 15.0 15.0 15.0 15.0 15.0 15.0 15.0 15.0 15.0 15.0 15.0 15.0 15.0 15.0 15.0
15.0 15.0 15.0 15.0 15.0 15.0 15.0 15.0 15.0 14.3 15.0 15.0 15.0 15.0 14.5 5.6 15.0 13.4 4.9 15.0 2.3 4.3 15.0 8.4 15.0 15.0 15.0 15.0 15.0 15.0 15.0 15.0 15.0 15.0 15.0 15.0 15.0 15.0 15.0 15.0 15.0 15.0 15.0
15.0 15.0 15.0 15.0 15.0 15.0 15.0 15.0 15.0 15.0 15.0 15.0 14.7 15.0 15.0 15.0 15.0 5.0 15.0 13.2 15.0 15.0 15.0 3.2 14.6 6.1 15.0 15.0 15.0 15.0 15.0 15.0 15.0 15.0 15.0 15.0 15.0 15.0 15.0 15.0 15.0 15.0 15.0
15.0 15.0 15.0 15.0 15.0 15.0 15.0 15.0 15.0 15.0 15.0 15.0 15.0 15.0 15.0 15.0 15.0 15.0 15.0 15.0 15.0 15.0 15.0 2.3 15.0 15.0 15.0 4.2 13.0 15.0 15.0 15.0 15.0 15.0 15.0 15.0 15.0 15.0 15.0 15.0 15.0 15.0 15.0
15.0 15.0 15.0 15.0 15.0 15.0 15.0 15.0 15.0 15.0 15.0 15.0 15.0 15.0 15.0 15.0 15.0 15.0 15.0 15.0 15.0 5.6 5.6 5.8 4.0 15.0 15.0 15.0 15.0 8.7 15.0 15.0 15.0 15.0 15.0 15.0 15.0 15.0 15.0 15.0 12.1 8.7 14.8
15.0 15.0 15.0 15.0 15.0 15.0 15.0 15.0 15.0 15.0 15.0 15.0 15.0 15.0 15.0 15.0 15.0 15.0 15.0 15.0 15.0 15.0 15.0 15.0 15.0 9.4 3.9 15.0 15.0 8.6 15.0 15.0 15.0 15.0 15.0 15.0 15.0 15.0 15.0 15.0 15.0 11.7 8.6
15.0 15.0 15.0 15.0 15.0 15.0 15.0 15.0 15.0 15.0 15.0 15.0 15.0 15.0 15.0 15.0 15.0 15.0 15.0 15.0 15.0 15.0 15.0 15.0 15.0 14.3 8.1 14.4 13.0 12.6 11.8 15.0 15.0 15.0 15.0 15.0 15.0 15.0 15.0 15.0 15.0 15.0 5.7
15.0 15.0 15.0 15.0 15.0 15.0 15.0 15.0 15.0 15.0 15.0 15.0 15.0 15.0 15.0 15.0 15.0 15.0 15.0 15.0 15.0 15.0 15.0 15.0 6.2 15.0 7.4 15.0 15.0 6.5 15.0 3.9 6.3 15.0 15.0 15.0 15.0 15.0 15.0 15.0 15.0 15.0 15.0
15.0 15.0 15.0 15.0 15.0 15.0 15.0 15.0 15.0 15.0 15.0 15.0 15.0 15.0 15.0 15.0 15.0 15.0 15.0 15.0 15.0 15.0 15.0 15.0 15.0 13.9 13.7 15.0 15.0 9.1 5.2 4.8 3.6 8.4 9.9 15.0 15.0 15.0 15.0 15.0 15.0 15.0 15.0
15.0 15.0 15.0 15.0 15.0 15.0 15.0 15.0 15.0 15.0 15.0 15.0 15.0 15.0 15.0 15.0 15.0 15.0 15.0 15.0 15.0 15.0 15.0 15.0 15.0 15.0 15.0 15.0 15.0 14.0 4.9 0.7 3.2 5.3 9.9 6.6 15.0 15.0 15.0 15.0 15.0 15.0 15.0
15.0 15.0 15.0 15.0 15.0 15.0 15.0 15.0 15.0 15.0 15.0 15.0 15.0 15.0 15.0 15.0 15.0 15.0 15.0 15.0 15.0 15.0 15.0 15.0 15.0 15.0 15.0 15.0 15.0 15.0 3.8 4.0 15.0 9.9 6.3 14.6 3.3 15.0 15.0 15.0 15.0 15.0 15.0
15.0 15.0 15.0 15.0 15.0 15.0 15.0 15.0 15.0 15.0 15.0 15.0 15.0 15.0 15.0 15.0 15.0 15.0 15.0 15.0 15.0 15.0 15.0 15.0 15.0 15.0 15.0 15.0 15.0 14.4 15.0 7.0 9.1 15.0 15.0 15.0 15.0 15.0 15.0 15.0 15.0 15.0 15.0
15.0 15.0 15.0 15.0 15.0 15.0 15.0 15.0 15.0 15.0 15.0 15.0 15.0 15.0 15.0 15.0 15.0 15.0 15.0 15.0 15.0 15.0 15.0 15.0 15.0 15.0 15.0 15.0 15.0 8.5 6.7 3.2 12.1 15.0 12.4 15.0 15.0 15.0 15.0 15.0 15.0 15.0 15.0
15.0 15.0 15.0 15.0 15.0 15.0 15.0 15.0 15.0 15.0 15.0 15.0 15.0 15.0 15.0 15.0 15.0 15.0 15.0 15.0 15.0 14.2 15.0 15.0 15.0 15.0 15.0 15.0 15.0 15.0 12.7 7.5 6.2 6.0 10.9 0.2 0.1 1.7 7.7 6.7 1.7 5.4 15.0
15.0 15.0 15.0 15.0 15.0 15.0 15.0 15.0 7.1 15.0 15.0 6.6 7.2 8.9 7.6 7.2 15.0 15.0 15.0 15.0 15.0 15.0 15.0 15.0 15.0 15.0 15.0 15.0 15.0 15.0 15.0 4.1 14.9 3.1 1.3 0.1 0.0 0.0 0.0 0.1 0.1 0.0 0.1
15.0 15.0 15.0 15.0 15.0 15.0 14.8 15.0 4.5 15.0 13.0 6.0 3.7 1.1 1.8 10.8 11.9 0.0 4.4 15.0 15.0 14.6 11.1 14.1 12.9 15.0 15.0 15.0 15.0 15.0 15.0 15.0 15.0 12.0 0.1 0.0 0.0 0.0 0.0 0.0 0.0 0.0 0.0
15.0 15.0 15.0 15.0 15.0 15.0 15.0 15.0 6.7 15.0 15.0 14.5 7.4 1.7 1.0 0.2 0.1 0.1 0.6 0.1 8.1 10.4 15.0 15.0 8.3 12.5 15.0 15.0 15.0 15.0 15.0 15.0 15.0 9.8 0.4 0.2 0.0 0.0 0.0 0.0 0.0 0.0 0.0
15.0 15.0 15.0 15.0 15.0 15.0 15.0 15.0 15.0 6.8 14.9 15.0 13.8 3.1 0.4 0.2 0.2 0.1 0.2 0.4 0.2 0.2 5.2 15.0 14.5 14.1 14.2 5.7 0.5 11.4 15.0 15.0 15.0 12.7 8.6 0.1 0.0 0.0 0.0 0.0 0.0 0.0 0.0
15.0 15.0 15.0 15.0 15.0 15.0 15.0 15.0 15.0 15.0 15.0 6.4 0.8 7.1 0.2 0.2 0.1 0.2 0.1 0.2 0.1 0.1 0.1 0.1 0.1 0.1 8.7 0.7 0.6 0.1 14.9 15.0 14.9 14.8 0.1 0.1 0.4 0.1 0.1 0.1 0.0 0.0 0.0
15.0 15.0 15.0 15.0 15.0 15.0 15.0 15.0 15.0 15.0 15.0 13.0 0.6 6.2 5.5 1.0 0.2 0.1 0.1 0.1 0.2 0.1 0.1 0.1 0.1 0.1 1.3 0.3 0.5 0.1 1.5 0.7 0.1 0.2 2.7 0.0 0.0 0.0 0.0 0.9 15.0 4.7 0.1
15.0 15.0 15.0 15.0 15.0 15.0 15.0 15.0 12.0 15.0 15.0 15.0 12.3 14.7 11.8 5.2 9.0 0.1 0.1 0.1 0.1 0.1 0.1 0.1 0.1 0.1 0.1 0.1 7.2 9.4 8.5 8.4 0.1 7.1 10.8 0.0 0.0 0.0 0.0 0.0 15.0 15.0 15.0
15.0 15.0 15.0 15.0 15.0 15.0 15.0 15.0 15.0 15.0 15.0 15.0 15.0 15.0 15.0 15.0 13.8 14.2 11.3 0.4 0.2 0.1 0.2 0.1 0.1 0.1 0.2 0.2 0.1 15.0 11.6 15.0 0.0 0.1 10.1 0.1 0.0 0.0 0.0 0.1 0.1 10.8 15.0
15.0 15.0 15.0 15.0 15.0 15.0 15.0 15.0 15.0 15.0 15.0 15.0 15.0 15.0 15.0 15.0 15.0 14.5 4.6 2.8 2.3 1.4 1.6 4.2 14.2 4.0 0.3 0.3 0.3 0.1 0.1 0.4 1.7 3.5 12.8 0.1 0.1 0.1 0.0 0.1 0.1 2.3 0.1

GFSMA_sfc_vis_144.txt.gz
Visibility
15.0 15.0 15.0 15.0 15.0 15.0 15.0 15.0 15.0 9.6 6.1 9.4 3.2 3.8 8.0 1.5 3.2 3.9 15.0 15.0 15.0 15.0 10.0 15.0 8.2 11.9 6.4 15.0 15.0 15.0 15.0 15.0 15.0 15.0 15.0 15.0 15.0 15.0 15.0 15.0 15.0 15.0 15.0
15.0 15.0 15.0 15.0 15.0 15.0 15.0 15.0 15.0 0.7 1.2 15.0 15.0 15.0 15.0 14.9 15.0 13.7 15.0 15.0 15.0 15.0 5.2 3.6 9.5 9.8 15.0 15.0 15.0 15.0 15.0 15.0 15.0 15.0 15.0 15.0 15.0 15.0 15.0 15.0 15.0 12.3 15.0
15.0 15.0 15.0 15.0 15.0 15.0 15.0 15.0 15.0 15.0 15.0 15.0 15.0 15.0 15.0 15.0 15.0 15.0 15.0 15.0 15.0 15.0 15.0 3.2 4.5 8.1 15.0 15.0 14.2 15.0 15.0 15.0 15.0 15.0 15.0 15.0 15.0 15.0 15.0 15.0 15.0 15.0 15.0
15.0 15.0 15.0 15.0 15.0 15.0 15.0 15.0 15.0 15.0 15.0 15.0 15.0 15.0 15.0 15.0 15.0 15.0 15.0 13.6 15.0 15.0 15.0 7.3 2.2 2.6 3.8 12.6 12.5 8.9 15.0 15.0 15.0 15.0 15.0 15.0 15.0 15.0 15.0 15.0 15.0 15.0 15.0
15.0 15.0 15.0 15.0 15.0 15.0 15.0 15.0 15.0 15.0 15.0 15.0 15.0 15.0 15.0 15.0 15.0 15.0 15.0 15.0 15.0 15.0 3.4 10.0 15.0 6.4 11.0 12.3 7.3 15.0 9.4 3.1 15.0 15.0 15.0 15.0 15.0 15.0 15.0 15.0 15.0 15.0 15.0
15.0 15.0 15.0 15.0 15.0 15.0 15.0 15.0 15.0 15.0 15.0 15.0 15.0 15.0 15.0 15.0 15.0 15.0 15.0 15.0 15.0 15.0 13.7 15.0 2.8 15.0 3.4 3.6 3.8 3.2 15.0 5.3 3.8 10.8 15.0 15.0 15.0 15.0 15.0 15.0 15.0 15.0 15.0
15.0 15.0 15.0 15.0 15.0 15.0 15.0 15.0 15.0 15.0 15.0 15.0 15.0 15.0 15.0 15.0 15.0 15.0 15.0 15.0 15.0 15.0 15.0 3.0 13.3 3.1 4.9 14.2 12.7 15.0 6.4 3.8 10.3 2.6 5.4 15.0 15.0 15.0 15.0 15.0 15.0 15.0 15.0
15.0 15.0 15.0 15.0 15.0 15.0 15.0 15.0 15.0 15.0 15.0 15.0 15.0 12.3 0.9 14.0 15.0 15.0 15.0 15.0 15.0 15.0 15.0 15.0 15.0 15.0 15.0 15.0 15.0 15.0 11.0 5.1 15.0 10.7 12.2 15.0 15.0 15.0 15.0 15.0 11.8 15.0 12.0
15.0 15.0 15.0 15.0 15.0 15.0 15.0 15.0 15.0 15.0 15.0 15.0 15.0 1.0 1.5 15.0 15.0 15.0 15.0 15.0 15.0 15.0 15.0 15.0 15.0 15.0 15.0 15.0 15.0 15.0 15.0 15.0 15.0 15.0 13.7 9.5 9.4 5.9 15.0 15.0 15.0 10.8 14.2
15.0 15.0 15.0 15.0 15.0 15.0 15.0 15.0 15.0 15.0 15.0 15.0 15.0 15.0 15.0 15.0 2.8 3.7 15.0 15.0 15.0 15.0 15.0 15.0 15.0 15.0 15.0 15.0 15.0 15.0 15.0 8.6 6.8 15.0 15.0 15.0 3.4 9.4 5.9 15.0 15.0 4.4 6.7
15.0 15.0 15.0 15.0 15.0 15.0 15.0 15.0 15.0 15.0 15.0 15.0 15.0 15.0 15.0 15.0 15.0 15.0 15.0 15.0 15.0 15.0 15.0 15.0 15.0 15.0 15.0 15.0 15.0 15.0 15.0 15.0 15.0 7.6 6.5 6.0 3.6 4.6 3.7 4.1 14.6 15.0 5.0
15.0 15.0 15.0 15.0 15.0 15.0 15.0 15.0 15.0 15.0 15.0 15.0 15.0 15.0 15.0 15.0 15.0 15.0 15.0 15.0 15.0 15.0 15.0 15.0 15.0 15.0 15.0 15.0 15.0 15.0 15.0 15.0 0.2 11.6 14.6 7.2 6.1 5.7 10.0 13.0 15.0 15.0 3.7
15.0 15.0 15.0 15.0 15.0 15.0 15.0 15.0 15.0 15.0 15.0 15.0 15.0 15.0 15.0 15.0 15.0 15.0 15.0 15.0 15.0 15.0 15.0 15.0 15.0 15.0 15.0 15.0 15.0 15.0 15.0 0.1 0.0 0.1 5.3 12.8 8.7 11.3 11.2 6.0 12.5 15.0 14.1
15.0 15.0 15.0 15.0 15.0 15.0 15.0 15.0 15.0 15.0 15.0 15.0 15.0 15.0 15.0 15.0 15.0 15.0 13.4 4.0 1.2 15.0 15.0 15.0 15.0 15.0 15.0 15.0 15.0 15.0 15.0 1.9 0.0 0.0 0.0 0.2 2.7 9.5 13.2 6.6 5.3 3.2 13.2
15.0 15.0 15.0 15.0 15.0 15.0 15.0 15.0 15.0 15.0 15.0 15.0 15.0 15.0 15.0 15.0 15.0 15.0 15.0 14.0 5.5 0.0 7.8 15.0 15.0 15.0 15.0 15.0 15.0 15.0 15.0 15.0 15.0 4.3 0.0 0.1 0.1 0.2 0.6 0.5 1.8 8.3 5.1
15.0 15.0 15.0 15.0 15.0 15.0 15.0 15.0 15.0 15.0 15.0 15.0 15.0 15.0 15.0 15.0 15.0 15.0 15.0 15.0 15.0 5.8 0.1 15.0 15.0 15.0 15.0 15.0 15.0 15.0 15.0 15.0 15.0 15.0 15.0 0.1 0.0 0.1 0.1 0.1 0.1 0.2 6.8
15.0 15.0 15.0 15.0 15.0 15.0 15.0 15.0 15.0 15.0 15.0 15.0 15.0 15.0 15.0 15.0 15.0 14.6 13.4 3.9 0.0 0.2 0.0 4.3 15.0 15.0 15.0 15.0 15.0 15.0 15.0 15.0 15.0 15.0 15.0 14.7 0.1 0.0 0.0 0.1 0.1 0.1 0.1
15.0 15.0 15.0 15.0 15.0 15.0 15.0 15.0 15.0 15.0 15.0 15.0 15.0 15.0 15.0 15.0 15.0 15.0 12.5 15.0 15.0 14.8 1.7 0.2 15.0 15.0 12.8 15.0 15.0 15.0 15.0 15.0 15.0 15.0 15.0 15.0 14.8 0.9 0.2 0.1 0.1 0.1 0.1
15.0 15.0 15.0 15.0 15.0 15.0 15.0 15.0 15.0 15.0 15.0 15.0 15.0 15.0 10.5 3.1 6.2 14.2 10.7 12.0 15.0 14.9 9.2 0.1 0.3 15.0 15.0 15.0 15.0 15.0 15.0 15.0 15.0 15.0 15.0 0.1 0.0 0.1 0.0 0.1 0.0 0.0 0.0
15.0 15.0 15.0 15.0 15.0 15.0 15.0 15.0 15.0 15.0 15.0 15.0 15.0 15.0 0.9 0.4 0.6 1.8 5.6 6.5 15.0 15.0 12.4 0.9 0.2 0.3 12.5 15.0 15.0 15.0 15.0 15.0 15.0 15.0 15.0 0.3 0.1 0.0 0.0 0.0 0.1 0.1 0.1
15.0 15.0 15.0 15.0 15.0 15.0 15.0 15.0 15.0 15.0 15.0 15.0 15.0 15.0 15.0 15.0 12.5 2.9 0.3 0.3 10.2 11.0 11.1 0.6 0.5 0.6 4.2 5.8 1.0 10.5 15.0 15.0 14.3 15.0 15.0 15.0 10.6 13.0 15.0 14.8 14.2 0.3 0.1
15.0 15.0 15.0 15.0 15.0 15.0 15.0 15.0 15.0 15.0 15.0 15.0 15.0 15.0 15.0 15.0 15.0 15.0 1.4 0.2 0.1 0.1 0.3 0.2 0.2 0.1 0.2 0.2 1.4 0.3 5.7 1.0 0.1 15.0 15.0 14.8 15.0 1.5 3.2 15.0 7.5 15.0 14.3
15.0 15.0 15.0 15.0 15.0 15.0 15.0 15.0 15.0 15.0 15.0 15.0 15.0 13.5 15.0 15.0 15.0 15.0 15.0 15.0 14.4 0.3 0.2 0.1 0.1 0.1 0.2 0.1 0.1 0.5 0.8 0.5 0.5 11.7 3.7 0.1 14.4 0.1 7.9 8.4 14.7 15.0 13.0
4.1 4.2 15.0 15.0 15.0 15.0 15.0 15.0 15.0 5.7 15.0 15.0 15.0 15.0 15.0 15.0 15.0 15.0 15.0 15.0 15.0 12.8 0.8 0.2 0.1 0.1 0.1 0.1 0.1 0.1 0.1 0.0 0.0 15.0 10.8 0.0 15.0 11.7 0.1 7.9 11.7 14.6 2.2
13.3 4.1 4.1 4.9 15.0 15.0 15.0 15.0 9.7 4.1 8.8 15.0 15.0 14.9 15.0 15.0 15.0 15.0 15.0 15.0 15.0 15.0 15.0 15.0 15.0 15.0 13.0 12.6 2.4 9.5 0.8 1.2 0.3 0.8 2.6 0.2 14.2 14.0 0.1 15.0 15.0 13.2 5.2
7.3 13.5 15.0 15.0 15.0 15.0 15.0 15.0 15.0 4.1 15.0 13.3 15.0 15.0 13.6 14.7 15.0 15.0 15.0 15.0 14.4 7.0 15.0 15.0 15.0 15.0 15.0 15.0 15.0 15.0 3.7 2.5 0.3 0.6 0.3 0.1 1.2 0.1 8.8 0.1 15.0 15.0 15.0